Temp_Advection
nan nan nan nan nan nan nan nan nan nan nan nan nan nan nan nan nan nan nan nan nan nan nan nan nan nan nan nan nan nan nan nan nan nan nan nan nan nan nan nan nan nan
nan 0 0 0 0 0 -0 0 0 -0 -0 -0 -0 0 0 0 0 0 0 0 -0 -0 -0 -0 0 -0 -1 -1 -0 -0 -0 -0 -0 -0 -0 -0 -0 -0 -0 0 0 nan
nan 0 0 0 0 -0 -0 0 0 0 0 -0 0 0 0 0 0 0 0 0 -0 -0 -0 -0 -0 -0 -1 -0 -0 0 0 -0 -0 0 -0 -0 0 0 0 0 0 nan
nan -0 0 0 0 -0 -0 0 0 0 0 -0 0 0 0 0 0 0 0 -0 -0 -0 -0 -0 -0 -0 -0 -0 0 0 0 0 0 0 -0 0 0 0 0 0 0 nan
nan -0 0 0 0 0 0 0 0 0 -0 -0 0 0 -0 0 0 0 -0 -0 -1 -0 -1 -1 -0 -0 -0 -0 -0 0 0 0 0 0 -0 -0 0 0 0 0 0 nan
nan -0 0 0 0 0 -0 0 0 0 0 0 0 -0 -0 -0 -0 -0 -0 -0 -1 -1 -1 -1 -0 -0 -0 -0 -0 -0 -0 0 0 -0 -0 0 0 0 0 0 0 nan
nan -0 0 0 1 0 -0 0 0 0 0 0 -0 -0 -1 -0 -0 -0 -0 -0 -0 -0 -1 -0 -0 -0 -0 -0 -0 -0 -0 0 0 -0 -0 0 0 0 0 0 0 nan
nan -1 -0 0 1 0 -0 0 0 0 1 0 -0 -0 -1 -1 -0 0 0 0 0 -0 -0 -0 -0 -0 -0 -0 -0 0 0 0 0 0 0 0 0 0 0 0 0 nan
nan -1 -0 0 1 -0 -0 0 0 1 0 -0 -0 -0 -1 -0 -0 0 0 0 0 0 -0 -0 -0 -0 -0 -0 -0 0 0 0 0 0 0 -0 -0 0 0 0 0 nan
nan -1 -0 0 -0 -0 -0 0 0 0 -0 -0 -0 -0 -0 -0 0 0 0 0 0 0 -0 -0 -0 -0 -0 -0 0 0 0 1 0 0 0 0 0 1 1 1 0 nan
nan -1 -1 -1 -0 -0 -0 0 0 0 -0 -0 -0 -0 -0 0 0 0 0 0 0 0 0 0 0 0 -0 0 0 0 1 1 1 1 0 1 1 1 1 1 0 nan
nan -2 -3 -2 -0 -0 0 0 0 -0 -0 -0 0 0 0 0 0 0 0 0 0 1 1 1 1 1 1 0 0 0 1 1 1 0 0 1 1 1 1 1 0 nan
nan -4 -3 -1 0 -0 0 0 0 0 -0 0 1 1 0 0 0 0 1 1 1 1 1 1 1 1 1 1 0 0 1 1 1 0 0 1 1 1 1 1 0 nan
nan -3 -1 1 0 0 0 0 0 1 0 1 1 1 0 0 0 1 1 2 1 1 1 2 1 1 1 1 -0 -0 0 0 0 0 1 1 1 1 1 1 0 nan
nan -1 1 1 1 0 -0 -0 1 1 1 1 1 0 1 1 1 1 1 1 1 1 1 1 1 1 1 0 -0 -0 -0 -0 0 1 1 1 1 1 1 0 0 nan
nan 0 1 0 -0 -1 -1 0 1 2 2 1 0 0 1 1 1 1 1 1 1 1 1 1 1 1 0 -0 -0 -1 -1 -0 0 0 0 1 1 1 1 0 1 nan
nan 0 0 -0 -1 -0 0 1 2 2 2 1 0 1 1 1 1 1 0 1 1 1 1 1 1 1 -0 -0 -0 0 -0 -0 -0 -0 0 1 1 1 0 0 1 nan
nan -0 -0 -0 -0 0 1 2 3 2 1 0 0 1 1 1 1 0 1 1 1 1 1 1 1 1 -0 -0 0 1 1 0 -0 -1 0 1 1 1 0 1 1 nan
nan -0 0 0 0 1 2 3 2 1 0 0 0 1 1 0 1 1 1 1 1 1 1 0 1 1 0 0 0 0 1 1 -0 -1 -1 1 2 1 0 1 1 nan
nan 1 1 1 1 2 2 2 1 0 0 1 1 1 0 0 1 1 1 1 1 1 0 1 1 1 0 -0 -0 0 2 2 0 -1 -1 1 2 1 0 1 1 nan
nan 1 2 1 1 2 1 1 1 1 1 1 1 1 0 1 1 1 1 1 1 1 1 1 1 0 -0 -0 0 1 2 2 1 -0 -1 1 2 1 -0 1 1 nan
nan 1 1 1 1 1 1 1 1 1 1 1 1 1 1 1 1 1 1 1 1 1 1 1 1 0 0 0 1 1 2 2 1 0 -0 1 2 0 -1 0 1 nan
nan 1 1 1 1 1 1 1 1 1 1 1 1 1 1 1 1 1 1 1 1 1 1 1 0 0 0 1 1 2 1 1 1 1 1 1 0 -1 -1 1 1 nan
nan 1 1 1 1 1 1 1 1 1 1 1 1 1 1 1 1 1 1 1 1 1 1 1 0 1 1 1 1 1 1 1 0 1 1 1 -1 -1 -0 0 1 nan
nan 1 2 2 1 1 1 1 1 1 1 1 1 1 1 1 2 2 1 1 1 1 1 1 0 1 1 1 1 1 1 1 0 1 1 -1 -2 -1 -0 1 1 nan
nan nan nan nan nan nan nan nan nan nan nan nan nan nan nan nan nan nan nan nan nan nan nan nan nan nan nan nan nan nan nan nan nan nan nan nan nan nan nan nan nan nan
Wind_Speed
33 33 32 31 31 31 30 28 27 27 27 26 25 23 22 21 20 20 18 17 18 18 18 16 13 13 14 14 14 13 11 10 12 14 14 14 14 14 14 14 15 16
34 33 33 32 32 32 31 30 28 28 27 26 24 23 21 21 21 21 20 19 19 18 18 17 14 14 16 17 16 15 13 13 13 15 15 15 15 16 16 15 16 18
35 34 34 33 33 33 32 31 30 29 28 26 25 24 22 22 22 23 22 21 20 19 18 18 15 15 17 18 17 16 16 15 14 15 16 15 15 16 16 16 16 17
37 36 35 34 34 33 32 32 31 30 29 28 26 25 23 23 23 24 23 23 22 20 20 19 16 16 19 18 18 18 18 17 16 17 17 16 15 16 16 17 16 15
39 37 37 35 34 34 33 33 33 32 31 30 28 26 25 25 26 26 26 25 24 23 22 22 19 19 19 18 18 20 20 19 19 20 19 16 16 16 17 17 18 17
41 39 38 37 36 35 35 34 33 33 32 31 30 29 28 27 28 28 28 27 27 26 25 24 23 22 21 19 18 19 21 21 21 22 21 19 17 17 18 18 18 18
43 41 40 38 37 36 36 35 34 34 33 32 31 31 30 30 30 30 30 29 28 28 27 26 25 24 22 21 20 20 21 21 21 22 22 21 19 19 19 19 19 18
44 43 41 40 39 38 37 36 35 34 34 33 33 33 33 32 32 32 32 31 30 30 29 27 26 25 24 23 23 22 22 22 22 23 24 23 22 21 21 20 19 19
45 44 43 42 41 40 39 37 36 35 35 35 34 34 35 34 34 33 33 33 32 32 31 30 29 27 26 25 25 25 24 24 23 23 25 24 22 22 21 21 20 20
45 45 44 43 42 41 40 39 37 36 36 36 36 36 36 36 35 35 34 34 34 34 33 33 32 31 29 27 27 26 26 26 24 24 25 25 24 22 22 22 22 21
46 46 45 44 43 42 41 40 39 37 37 37 37 38 37 37 37 36 36 36 36 36 36 35 35 34 32 30 29 28 28 28 26 24 25 26 25 24 23 23 22 21
47 47 46 45 44 43 42 41 40 39 39 38 38 39 39 39 38 38 38 38 38 38 37 37 37 36 35 33 30 29 29 30 28 26 25 27 27 26 24 24 23 22
48 48 47 45 44 43 42 42 41 41 40 40 39 39 40 40 39 40 40 40 39 39 39 38 38 38 37 35 31 30 30 31 30 28 27 28 29 27 26 25 23 22
48 47 46 45 44 43 42 42 42 42 41 40 40 39 40 40 40 39 39 39 40 39 39 39 39 39 39 37 33 32 32 32 30 29 29 30 30 29 27 26 24 23
48 47 46 46 45 44 43 42 42 43 42 41 41 40 39 39 39 39 39 39 39 39 39 39 40 40 40 38 35 34 34 33 31 30 30 30 31 30 29 26 25 24
48 48 47 46 45 44 43 42 42 42 42 42 41 40 38 38 38 38 39 39 39 39 39 39 40 41 41 38 36 35 35 34 32 31 31 31 31 32 31 27 25 25
48 48 48 47 46 44 43 42 42 42 41 40 40 39 38 37 37 37 38 38 38 37 37 38 39 40 39 37 35 36 37 37 34 32 32 32 33 33 32 28 26 26
47 48 48 48 46 45 43 42 42 41 41 39 39 39 37 37 37 37 37 36 35 35 35 35 37 39 38 35 32 34 37 39 36 33 32 34 34 33 32 29 26 26
47 47 48 48 47 45 44 43 42 41 41 40 39 39 38 37 37 36 36 35 35 34 33 33 35 36 35 31 29 29 33 37 37 35 33 34 34 33 32 29 27 25
48 47 47 46 46 45 44 43 43 41 41 41 40 38 38 37 36 35 34 34 34 34 32 32 33 33 31 28 25 25 30 34 35 35 34 34 34 32 31 29 27 24
49 48 46 45 44 44 44 44 42 41 41 40 39 38 36 35 34 32 32 33 34 34 33 33 33 31 28 26 24 24 27 31 33 35 35 35 34 31 30 29 26 23
50 48 46 44 43 43 43 43 42 41 40 39 38 36 35 33 32 30 30 31 32 33 33 32 31 29 28 27 27 25 26 28 31 34 36 35 33 30 30 29 26 22
51 49 47 45 43 43 42 41 40 39 38 37 37 36 35 34 33 31 30 30 31 33 33 32 31 29 27 28 28 26 25 26 30 32 34 34 32 30 29 27 26 24
50 49 47 45 43 42 40 39 39 38 37 36 36 36 35 34 33 32 31 31 31 32 32 31 30 28 28 28 28 27 25 26 28 30 33 33 32 30 29 26 27 26
49 48 47 45 42 40 38 38 38 37 35 34 33 33 32 32 32 32 31 30 30 30 30 29 29 28 27 28 27 27 25 25 25 27 31 34 33 31 29 27 27 24
48 47 46 44 41 38 37 37 36 35 34 33 32 31 31 31 30 29 28 27 27 28 28 28 27 26 25 25 25 25 25 24 23 24 27 31 31 31 29 28 26 24
Wind_Direction
219 219 219 219 218 218 217 217 215 213 215 218 222 223 223 223 221 222 223 217 216 222 228 229 222 227 229 222 219 215 210 208 204 204 206 207 206 209 213 207 199 197
218 218 219 218 218 217 217 219 219 217 218 220 223 224 224 223 221 223 225 219 218 224 229 232 231 228 226 223 226 226 216 207 206 206 209 212 209 211 218 214 206 204
217 217 218 217 217 217 215 218 220 220 221 222 222 222 220 220 220 223 226 223 224 228 230 235 235 228 224 223 225 230 224 214 214 215 213 214 212 213 218 218 216 214
216 217 218 218 217 217 215 216 218 219 221 222 223 221 218 218 220 224 225 225 229 231 233 238 236 224 222 222 221 226 227 222 223 226 221 215 215 216 217 218 219 218
216 216 218 219 217 217 216 217 219 219 220 222 223 222 220 218 220 223 225 227 230 233 235 240 237 225 221 222 219 220 225 224 222 226 227 221 217 216 217 217 219 220
216 216 218 219 218 217 217 219 220 220 221 222 223 223 223 222 223 225 227 229 231 234 236 240 238 228 221 223 221 217 221 223 220 222 226 225 221 218 217 217 219 222
216 216 218 220 219 218 218 220 221 222 223 223 223 225 225 226 228 229 231 233 234 236 238 241 239 232 224 223 224 219 218 221 221 220 223 226 223 220 220 218 217 220
217 217 219 221 220 219 220 221 222 223 224 224 225 226 228 229 231 232 233 235 236 238 240 241 240 236 230 226 226 224 219 220 221 219 220 222 221 221 221 218 216 217
217 218 219 221 221 221 222 222 223 223 225 226 227 228 229 231 233 234 235 236 238 240 241 242 241 240 237 232 230 227 224 222 221 218 217 218 219 220 220 219 218 218
217 218 220 220 221 222 223 224 224 224 225 227 229 229 231 232 234 236 237 238 239 240 241 242 242 242 241 238 234 231 229 226 222 221 219 218 219 220 220 220 220 221
217 218 220 221 222 222 224 225 225 225 226 227 229 230 231 232 234 235 237 238 240 241 242 243 244 244 243 241 238 233 231 228 226 224 223 220 220 222 223 222 223 225
217 218 220 222 222 223 224 225 225 225 227 228 229 231 232 233 234 235 237 239 241 242 243 244 244 244 243 242 240 236 232 228 227 227 227 225 223 223 225 225 225 228
218 218 221 222 222 223 224 224 224 225 227 229 230 230 232 234 235 237 238 240 241 242 243 243 243 243 243 241 240 239 234 229 228 230 229 228 226 225 227 227 227 229
220 220 222 223 222 223 224 224 225 225 227 229 230 231 232 234 237 238 239 240 241 242 243 243 242 242 242 240 239 239 236 232 231 233 232 230 228 227 228 230 229 229
221 221 222 222 222 223 223 224 225 225 226 228 230 231 233 235 237 238 239 240 240 241 243 242 242 241 240 240 240 239 239 236 233 235 236 233 229 228 229 230 230 230
221 221 221 221 222 223 224 224 225 225 225 225 228 231 233 234 235 237 238 240 240 241 241 241 241 240 240 242 242 242 243 240 235 237 240 235 231 230 229 229 230 230
221 221 220 221 222 223 224 224 224 224 223 224 227 230 232 233 233 235 237 238 240 241 242 242 242 242 242 244 246 246 246 242 238 240 241 237 234 232 229 229 230 230
221 221 221 221 222 222 224 224 223 222 222 223 225 228 230 231 232 234 236 238 240 242 243 244 244 244 244 246 249 250 249 244 240 240 242 241 239 234 229 230 231 230
221 221 221 221 221 221 222 223 221 221 221 223 224 226 228 230 231 233 236 238 241 243 245 246 245 245 244 245 248 251 252 248 242 239 242 245 244 237 231 231 233 232
221 221 220 220 220 219 220 220 220 220 221 222 222 223 225 228 230 232 235 238 241 243 245 247 246 246 246 246 249 253 254 250 243 239 242 245 246 240 232 230 232 232
218 220 219 218 218 217 217 218 219 219 219 219 220 222 224 226 228 230 233 236 239 241 243 245 246 248 249 251 256 256 254 249 242 238 241 244 245 240 231 229 232 231
215 217 217 216 215 215 215 216 217 218 217 217 217 219 222 224 225 228 230 233 237 240 241 243 246 249 250 253 255 252 250 247 240 237 239 241 241 236 229 228 229 229
212 213 214 214 213 212 212 214 215 215 216 216 216 216 219 221 224 226 229 232 236 239 240 243 247 250 251 252 251 248 247 245 239 235 235 236 236 233 230 228 227 232
209 210 211 211 211 210 210 211 212 213 214 215 215 217 218 221 223 224 227 231 235 238 240 242 247 251 253 251 248 248 248 242 237 235 233 232 231 229 230 232 234 240
207 207 208 208 208 207 208 209 210 211 212 212 214 217 219 221 222 223 225 228 231 234 237 241 246 251 251 249 248 249 248 242 239 237 233 230 228 228 233 239 240 245
204 204 205 205 205 205 205 207 208 208 209 210 212 215 218 220 222 223 225 227 229 232 235 240 244 244 244 245 246 249 248 243 239 235 231 228 226 229 237 242 242 246
Height
1520 1522 1524 1526 1529 1531 1533 1534 1536 1537 1538 1539 1540 1542 1543 1545 1546 1547 1549 1551 1552 1553 1555 1556 1558 1559 1559 1559 1560 1561 1561 1562 1562 1563 1563 1564 1564 1565 1565 1566 1566 1567
1516 1519 1521 1523 1526 1528 1530 1531 1533 1534 1535 1537 1538 1540 1541 1543 1544 1545 1548 1549 1550 1552 1553 1554 1556 1557 1558 1558 1558 1559 1559 1560 1560 1561 1562 1562 1563 1563 1563 1564 1565 1565
1513 1515 1518 1520 1522 1525 1527 1529 1530 1532 1533 1535 1536 1538 1539 1541 1542 1543 1546 1547 1548 1550 1551 1552 1554 1555 1555 1556 1556 1556 1557 1558 1558 1559 1560 1561 1561 1561 1562 1563 1563 1564
1510 1512 1515 1517 1520 1522 1524 1526 1527 1529 1531 1532 1534 1536 1537 1539 1540 1541 1543 1545 1546 1547 1549 1550 1551 1553 1553 1554 1554 1554 1555 1555 1556 1557 1558 1559 1559 1560 1560 1561 1561 1562
1507 1510 1512 1515 1517 1519 1521 1523 1524 1526 1528 1529 1531 1533 1535 1537 1538 1538 1540 1541 1543 1544 1546 1547 1548 1550 1550 1551 1551 1552 1553 1553 1554 1555 1556 1556 1557 1558 1559 1559 1559 1560
1504 1507 1509 1512 1514 1516 1518 1519 1522 1523 1525 1527 1528 1530 1532 1534 1535 1536 1537 1538 1540 1541 1542 1543 1545 1546 1547 1548 1549 1550 1550 1551 1552 1553 1553 1554 1555 1556 1557 1557 1558 1558
1500 1503 1506 1508 1511 1513 1515 1517 1519 1521 1522 1524 1526 1527 1529 1530 1532 1533 1534 1535 1536 1537 1539 1540 1542 1543 1544 1545 1546 1547 1548 1549 1550 1551 1551 1552 1553 1554 1555 1555 1556 1556
1497 1500 1503 1505 1507 1509 1511 1514 1516 1517 1520 1522 1523 1524 1525 1527 1528 1529 1531 1532 1533 1534 1535 1536 1538 1540 1541 1542 1543 1544 1545 1546 1547 1548 1548 1549 1550 1551 1552 1553 1553 1554
1494 1497 1499 1501 1503 1506 1508 1510 1513 1515 1517 1518 1520 1521 1522 1523 1525 1526 1527 1528 1529 1530 1531 1533 1534 1536 1538 1539 1540 1541 1542 1543 1544 1545 1545 1546 1547 1548 1549 1550 1550 1551
1491 1493 1496 1498 1500 1502 1504 1506 1509 1512 1514 1515 1516 1518 1519 1520 1521 1523 1524 1525 1526 1527 1528 1529 1530 1532 1534 1535 1536 1538 1539 1540 1541 1542 1543 1543 1544 1545 1546 1547 1548 1549
1487 1489 1491 1493 1496 1498 1500 1503 1506 1508 1510 1511 1513 1514 1515 1517 1518 1519 1520 1521 1522 1523 1524 1525 1527 1528 1530 1532 1533 1535 1536 1537 1538 1539 1540 1541 1542 1543 1544 1545 1545 1546
1483 1485 1487 1489 1492 1494 1497 1499 1502 1504 1506 1507 1509 1510 1512 1513 1514 1515 1516 1517 1518 1520 1521 1522 1524 1525 1526 1528 1531 1532 1533 1535 1536 1537 1538 1539 1540 1541 1542 1543 1543 1544
1479 1481 1483 1485 1488 1491 1493 1496 1498 1500 1501 1503 1505 1507 1508 1510 1511 1512 1513 1514 1515 1517 1519 1520 1521 1523 1524 1526 1528 1530 1531 1532 1534 1535 1535 1536 1537 1539 1540 1541 1541 1542
1475 1477 1479 1482 1485 1487 1490 1492 1494 1496 1498 1500 1502 1504 1505 1506 1507 1509 1510 1511 1513 1515 1516 1518 1519 1520 1521 1523 1526 1528 1529 1530 1531 1532 1532 1533 1535 1537 1538 1538 1539 1540
1472 1474 1476 1479 1482 1484 1487 1488 1490 1492 1494 1496 1498 1500 1501 1503 1504 1506 1508 1509 1510 1512 1514 1515 1516 1517 1517 1520 1524 1525 1526 1527 1529 1529 1530 1531 1532 1533 1535 1536 1537 1538
1468 1471 1473 1476 1478 1480 1482 1485 1487 1489 1491 1493 1495 1496 1499 1500 1502 1504 1505 1506 1507 1509 1511 1512 1512 1513 1515 1518 1521 1522 1522 1524 1525 1526 1527 1528 1529 1530 1531 1533 1534 1535
1464 1467 1469 1472 1474 1476 1478 1481 1483 1486 1488 1490 1492 1493 1496 1498 1499 1500 1501 1503 1505 1506 1507 1508 1509 1510 1512 1515 1517 1518 1519 1520 1522 1523 1524 1525 1526 1527 1528 1530 1531 1532
1460 1462 1465 1467 1470 1472 1475 1477 1480 1483 1485 1487 1489 1490 1492 1494 1496 1497 1499 1501 1502 1503 1505 1505 1506 1507 1509 1512 1514 1515 1516 1517 1519 1521 1521 1522 1523 1525 1526 1528 1529 1530
1456 1458 1460 1463 1466 1469 1472 1474 1477 1480 1482 1484 1486 1487 1490 1491 1493 1495 1496 1498 1499 1501 1502 1502 1503 1504 1506 1509 1511 1512 1513 1514 1516 1518 1519 1520 1521 1522 1524 1526 1527 1529
1452 1454 1456 1460 1463 1466 1469 1471 1474 1476 1478 1481 1483 1485 1487 1489 1491 1493 1494 1495 1496 1497 1498 1499 1499 1501 1504 1507 1508 1509 1510 1511 1513 1515 1517 1518 1519 1521 1523 1524 1525 1527
1447 1450 1453 1457 1460 1463 1466 1468 1470 1473 1475 1478 1480 1482 1485 1487 1489 1490 1491 1492 1493 1494 1495 1496 1497 1499 1501 1504 1505 1507 1508 1508 1510 1512 1514 1515 1517 1518 1520 1522 1523 1525
1442 1446 1450 1453 1457 1460 1462 1464 1467 1470 1472 1475 1478 1480 1482 1484 1486 1487 1489 1490 1491 1491 1492 1493 1494 1496 1499 1501 1502 1504 1505 1506 1507 1509 1511 1512 1514 1515 1517 1519 1521 1522
1438 1442 1446 1449 1453 1456 1458 1461 1464 1467 1470 1472 1475 1477 1479 1481 1483 1484 1486 1487 1488 1489 1490 1491 1492 1494 1496 1498 1500 1502 1503 1504 1505 1507 1508 1510 1512 1513 1514 1516 1517 1519
1434 1438 1442 1445 1449 1452 1456 1459 1461 1464 1467 1469 1471 1473 1475 1477 1479 1481 1483 1484 1486 1487 1488 1489 1490 1492 1493 1495 1497 1499 1501 1501 1503 1504 1505 1507 1509 1511 1512 1513 1515 1516
1430 1434 1438 1442 1446 1450 1453 1456 1458 1461 1463 1466 1468 1469 1471 1473 1475 1477 1479 1481 1483 1484 1485 1487 1488 1490 1491 1492 1494 1496 1497 1499 1500 1502 1503 1504 1506 1508 1509 1511 1513 1514
1427 1431 1435 1439 1443 1446 1450 1452 1455 1458 1460 1462 1464 1466 1468 1470 1472 1474 1476 1477 1479 1481 1482 1484 1486 1487 1488 1490 1491 1493 1495 1496 1497 1498 1500 1502 1504 1506 1507 1509 1511 1512